Location: Marsån
(66.4167°N, 22.2833°E)
Time: 10:28:01
(UTC+00:00)

Terra - Pass Details

Date: 24 February 2024
Orbit: 693 x 696 km, 98.1° (Epoch: 16 April)

Event Time Altitude Azimuth Distance (km) Brightness Sun altitude
Exits shadow 21:56:33 11° 276° (W) 2,086 4.4 -32.4°
Maximum altitude 21:57:24 12° 287° (WNW) 2,058 4.5 -32.4°
Drops below altitude 10° 21:59:02 10° 307° (NW) 2,170 4.9 -32.5°
Sets 22:02:59 0° 340° (NNW) 3,094 6.2 -32.5°
